7.3,23.8,1016.6,202003290030
7.1,24.2,1016.3,202003290100
6.8,25.0,1016.2,202003290130
6.2,25.2,1016.0,202003290200
5.8,27.7,1016.1,202003290230
5.8,27.6,1015.9,202003290300
5.5,28.0,1016.2,202003290330
5.4,27.8,1016.2,202003290400
5.4,28.2,1016.2,202003290430
4.8,29.6,1016.3,202003290500
4.6,30.2,1016.4,202003290530
5.3,27.7,1016.6,202003290600
6.5,25.3,1016.6,202003290630
6.3,24.8,1016.8,202003290700
7.9,20.7,1016.9,202003290730
6.5,26.6,1017.0,202003290800
5.7,28.7,1017.3,202003290830
6.5,25.2,1017.3,202003290900
7.0,24.2,1017.3,202003290930
7.1,23.6,1017.3,202003291000
7.1,23.6,1017.3,202003291030
7.1,22.2,1017.4,202003291100
6.9,22.0,1017.3,202003291130
7.7,19.8,1017.3,202003291200
7.3,23.8,1017.3,202003291230
7.5,25.7,1017.4,202003291300
7.2,28.8,1017.3,202003291330
7.0,28.2,1017.3,202003291400
7.4,28.7,1017.4,202003291430
6.3,40.0,1017.4,202003291500
4.2,76.4,1017.9,202003291530
4.0,99.9,1018.0,202003291600
4.1,99.9,1018.1,202003291630
3.4,99.9,1018.4,202003291700
3.2,99.9,1018.5,202003291730
3.0,99.9,1019.0,202003291800
2.7,99.9,1019.3,202003291830
2.3,99.4,1019.7,202003291900
2.4,87.6,1019.8,202003291930
2.6,60.0,1020.1,202003292000
2.4,62.0,1020.3,202003292030
2.4,63.9,1020.7,202003292100
2.0,71.8,1020.9,202003292130
1.6,85.3,1021.2,202003292200
1.2,96.4,1021.5,202003292230
0.4,99.9,1021.6,202003292300
0.0,99.9,1021.7,202003292330
-0.3,99.9,1022.0,202003300000
-0.3,99.9,1022.2,202003300030
-0.4,99.9,1022.1,202003300100
-0.5,82.3,1022.2,202003300130
-0.7,73.0,1022.2,202003300200
-0.8,81.3,1022.2,202003300230
-1.0,71.5,1022.2,202003300300
-1.1,69.8,1022.2,202003300330
-1.7,55.0,1022.2,202003300400
-2.0,57.5,1022.2,202003300430
-2.3,51.9,1022.3,202003300500
-2.3,49.4,1022.6,202003300530
-2.5,56.5,1022.7,202003300600
-2.2,57.2,1023.1,202003300630
-2.3,58.2,1023.2,202003300700
-1.9,55.7,1023.4,202003300730
-1.9,56.7,1023.4,202003300800
-1.6,54.2,1023.5,202003300830
-1.0,43.0,1023.4,202003300900
-1.0,42.2,1023.2,202003300930
-0.7,39.5,1023.0,202003301000
0.4,31.5,1022.8,202003301030
0.5,30.0,1022.6,202003301100
1.4,27.2,1022.5,202003301130
1.1,27.8,1022.2,202003301200
4.7,13.8,1021.9,202003301230
4.7,13.5,1021.8,202003301300
2.3,14.0,1021.8,202003301330
2.1,9.3,1021.6,202003301400
2.4,4.9,1021.5,202003301430
2.3,3.4,1021.4,202003301500
2.4,4.1,1021.5,202003301530
2.5,3.0,1021.5,202003301600
2.6,1.1,1021.5,202003301630
2.4,1.0,1021.7,202003301700
2.3,1.6,1021.9,202003301730
2.1,1.0,1022.0,202003301800
2.1,1.0,1022.2,202003301830
2.0,1.0,1022.4,202003301900
1.3,1.0,1022.4,202003301930
1.5,1.0,1022.6,202003302000
1.2,1.0,1022.8,202003302030
0.2,11.8,1022.9,202003302100
-0.5,31.3,1022.8,202003302130
-0.4,44.7,1022.9,202003302200
-0.6,46.5,1022.8,202003302230
-0.6,46.5,1022.7,202003302300
-0.4,44.2,1022.6,202003302330
-0.3,29.7,1022.6,202003310000
